Powrót do katalogu

COSMOS 1275 DEB

AktywnyPO
NORAD 20505·DEBRIS·🇷🇺 Russia

Wystrzelony Jun 4, 1981 z Plesetsk Cosmodrome

Loading…

Następne Przeloty (najbliższe 24 godziny)

TLE

ŚwieżeSource: Space-Track

Epoka: Sep 14, 2026, 05:12 UTC

1 20505U 81053MM  26257.21705437  .00003503  00000-0  75366-3 0  9991
2 20505  83.1524 178.2896 0015759  68.6286 291.6596 14.58217782688433

Śledź COSMOS 1275 DEB w czasie rzeczywistym z AllMySat

Download on the App Store